When you browse on this site, cookies collect data to enhance your experience and personalize the content and advertising you see.
Visit our Privacy Policy to learn more. By continuing to use the site, you agree to this use of cookies and data.
  • en France
  • Liste des pays
  • À 7 jours
  • Température de l'eau
  • Carte satellitaire
  • Carte météo
  • Widgets météo
  • user-avatar
    Se connecter

    Météo par heure à Graz

    Ce jour, 16 Février, Samedi

    Heure Température Précipitation Vent Pression Humidité
    00:00 +4°C° 0 mm 1 m/s 735 mmHg 67%
    01:00 +4°C° 0 mm 1 m/s 735 mmHg 65%
    02:00 +4°C° 0 mm 1 m/s 734 mmHg 62%
    03:00 +4°C° 0 mm 1 m/s 734 mmHg 60%
    04:00 +4°C° 0 mm 1 m/s 734 mmHg 58%
    05:00 +4°C° 0 mm 1 m/s 734 mmHg 56%
    06:00 +4°C° 0 mm 1 m/s 734 mmHg 55%
    07:00 +4°C° 0 mm 1 m/s 734 mmHg 53%
    08:00 +6°C° 0 mm 1 m/s 734 mmHg 50%
    09:00 +7°C° 0 mm 0 m/s 734 mmHg 46%
    10:00 +9°C° 0 mm 0 m/s 734 mmHg 43%
    11:00 +10°C° 0 mm 0 m/s 734 mmHg 41%
    12:00 +11°C° 0 mm 0 m/s 734 mmHg 39%
    13:00 +13°C° 0 mm 0 m/s 734 mmHg 37%
    14:00 +12°C° 0 mm 0 m/s 733 mmHg 41%
    15:00 +12°C° 0 mm 0 m/s 733 mmHg 45%
    16:00 +11°C° 0 mm 0 m/s 733 mmHg 48%
    17:00 +10°C° 0 mm 0 m/s 733 mmHg 53%
    18:00 +9°C° 0 mm 1 m/s 733 mmHg 58%
    19:00 +7°C° 0 mm 1 m/s 733 mmHg 63%
    20:00 +7°C° 0 mm 1 m/s 733 mmHg 65%
    21:00 +6°C° 0 mm 1 m/s 733 mmHg 67%
    22:00 +6°C° 0 mm 1 m/s 733 mmHg 68%
    23:00 +6°C° 0 mm 1 m/s 733 mmHg 68%

    Demain, 17 Février, Dimanche

    Heure Température Précipitation Vent Pression Humidité
    00:00 +6°C° 0 mm 1 m/s 733 mmHg 68%
    01:00 +5°C° 0 mm 1 m/s 733 mmHg 68%
    02:00 +5°C° 0 mm 1 m/s 732 mmHg 67%
    03:00 +5°C° 0 mm 1 m/s 732 mmHg 66%
    04:00 +5°C° 0 mm 1 m/s 732 mmHg 65%
    05:00 +5°C° 0 mm 1 m/s 732 mmHg 63%
    06:00 +5°C° 0 mm 1 m/s 732 mmHg 62%
    07:00 +5°C° 0 mm 1 m/s 732 mmHg 60%
    08:00 +7°C° 0 mm 1 m/s 732 mmHg 55%
    09:00 +8°C° 0 mm 0 m/s 732 mmHg 50%
    10:00 +10°C° 0 mm 0 m/s 732 mmHg 45%
    11:00 +11°C° 0 mm 0 m/s 732 mmHg 42%
    12:00 +13°C° 0 mm 0 m/s 731 mmHg 40%
    13:00 +15°C° 0 mm 1 m/s 731 mmHg 37%
    14:00 +14°C° 0 mm 1 m/s 731 mmHg 41%
    15:00 +14°C° 0 mm 1 m/s 730 mmHg 44%
    16:00 +13°C° 0 mm 1 m/s 730 mmHg 48%
    17:00 +12°C° 0 mm 1 m/s 730 mmHg 53%
    18:00 +9°C° 0 mm 0 m/s 730 mmHg 58%
    19:00 +7°C° 0 mm 0 m/s 730 mmHg 64%
    20:00 +7°C° 0 mm 1 m/s 730 mmHg 65%
    21:00 +7°C° 0 mm 1 m/s 730 mmHg 66%
    22:00 +6°C° 0 mm 1 m/s 730 mmHg 68%
    23:00 +6°C° 0 mm 1 m/s 730 mmHg 67%

    Après-demain, 18 Février, Lundi

    Heure Température Précipitation Vent Pression Humidité
    00:00 +6°C° 0 mm 1 m/s 730 mmHg 67%
    01:00 +6°C° 0 mm 1 m/s 730 mmHg 67%
    02:00 +5°C° 0 mm 1 m/s 729 mmHg 66%
    03:00 +5°C° 0 mm 1 m/s 729 mmHg 65%
    04:00 +5°C° 0 mm 1 m/s 729 mmHg 65%
    05:00 +5°C° 0 mm 1 m/s 729 mmHg 64%
    06:00 +4°C° 0 mm 1 m/s 729 mmHg 63%
    07:00 +4°C° 0 mm 1 m/s 729 mmHg 62%
    08:00 +6°C° 0 mm 1 m/s 729 mmHg 57%
    09:00 +8°C° 0 mm 0 m/s 729 mmHg 51%
    10:00 +10°C° 0 mm 0 m/s 729 mmHg 46%
    11:00 +11°C° 0 mm 0 m/s 729 mmHg 44%
    12:00 +13°C° 0 mm 1 m/s 728 mmHg 42%
    13:00 +14°C° 0 mm 1 m/s 728 mmHg 41%
    14:00 +13°C° 0 mm 1 m/s 728 mmHg 44%
    15:00 +13°C° 0 mm 1 m/s 727 mmHg 47%
    16:00 +13°C° 0 mm 1 m/s 727 mmHg 50%
    17:00 +11°C° 0 mm 1 m/s 727 mmHg 57%
    18:00 +8°C° 0 mm 0 m/s 727 mmHg 64%
    19:00 +6°C° 0 mm 0 m/s 727 mmHg 71%
    20:00 +6°C° 0 mm 0 m/s 727 mmHg 72%
    21:00 +6°C° 0 mm 1 m/s 727 mmHg 73%
    22:00 +6°C° 0 mm 1 m/s 727 mmHg 74%
    23:00 +6°C° 0 mm 1 m/s 727 mmHg 75%

    19 Février, Mardi

    Heure Température Précipitation Vent Pression Humidité
    00:00 +5°C° 0 mm 1 m/s 727 mmHg 75%
    01:00 +5°C° 0 mm 1 m/s 727 mmHg 76%
    02:00 +5°C° 0 mm 1 m/s 727 mmHg 75%
    03:00 +5°C° 0 mm 1 m/s 727 mmHg 75%
    04:00 +4°C° 0 mm 1 m/s 726 mmHg 74%
    05:00 +4°C° 0 mm 1 m/s 727 mmHg 73%
    06:00 +4°C° 0 mm 1 m/s 727 mmHg 72%
    07:00 +4°C° 0 mm 1 m/s 727 mmHg 70%
    08:00 +6°C° 0 mm 1 m/s 727 mmHg 63%
    09:00 +8°C° 0 mm 1 m/s 727 mmHg 55%
    10:00 +9°C° 0 mm 0 m/s 728 mmHg 47%
    11:00 +11°C° 0 mm 0 m/s 728 mmHg 44%
    12:00 +12°C° 0 mm 0 m/s 727 mmHg 41%
    13:00 +14°C° 0 mm 0 m/s 727 mmHg 37%
    14:00 +13°C° 0 mm 0 m/s 727 mmHg 40%
    15:00 +14°C° 0 mm 1 m/s 727 mmHg 42%
    16:00 +14°C° 0 mm 1 m/s 727 mmHg 45%
    17:00 +12°C° 0 mm 1 m/s 727 mmHg 52%
    18:00 +10°C° 0 mm 1 m/s 727 mmHg 59%
    19:00 +8°C° 0 mm 1 m/s 728 mmHg 65%
    20:00 +7°C° 0 mm 1 m/s 728 mmHg 67%
    21:00 +7°C° 0 mm 1 m/s 728 mmHg 69%
    22:00 +6°C° 0 mm 1 m/s 729 mmHg 71%
    23:00 +6°C° 0 mm 1 m/s 729 mmHg 71%

    20 Février, Mercredi

    Heure Température Précipitation Vent Pression Humidité
    00:00 +6°C° 0 mm 1 m/s 729 mmHg 71%
    01:00 +5°C° 0 mm 1 m/s 729 mmHg 71%
    02:00 +5°C° 0 mm 1 m/s 729 mmHg 70%
    03:00 +5°C° 0 mm 1 m/s 729 mmHg 70%
    04:00 +4°C° 0 mm 1 m/s 729 mmHg 69%
    05:00 +4°C° 0 mm 1 m/s 729 mmHg 69%
    06:00 +4°C° 0 mm 1 m/s 729 mmHg 69%
    07:00 +4°C° 0 mm 1 m/s 729 mmHg 69%
    08:00 +6°C° 0 mm 1 m/s 730 mmHg 62%
    09:00 +7°C° 0 mm 0 m/s 730 mmHg 55%
    10:00 +10°C° 0 mm 0 m/s 731 mmHg 49%
    11:00 +10°C° 0 mm 0 m/s 730 mmHg 46%
    12:00 +12°C° 0 mm 1 m/s 730 mmHg 43%
    13:00 +13°C° 0 mm 1 m/s 730 mmHg 41%
    14:00 +13°C° 0 mm 1 m/s 730 mmHg 43%
    15:00 +13°C° 0 mm 1 m/s 730 mmHg 45%
    16:00 +12°C° 0 mm 1 m/s 729 mmHg 47%
    17:00 +11°C° 0 mm 1 m/s 730 mmHg 54%
    18:00 +8°C° 0 mm 0 m/s 730 mmHg 61%
    19:00 +6°C° 0 mm 0 m/s 730 mmHg 68%
    20:00 +7°C° 0 mm 1 m/s 730 mmHg 69%
    21:00 +7°C° 0 mm 1 m/s 730 mmHg 70%
    22:00 +6°C° 0 mm 1 m/s 731 mmHg 71%
    23:00 +6°C° 0 mm 1 m/s 731 mmHg 71%

    21 Février, Jeudi

    Heure Température Précipitation Vent Pression Humidité
    00:00 +6°C° 0 mm 1 m/s 731 mmHg 71%
    01:00 +5°C° 0 mm 1 m/s 731 mmHg 71%
    02:00 +5°C° 0 mm 1 m/s 731 mmHg 71%
    03:00 +5°C° 0 mm 1 m/s 731 mmHg 71%
    04:00 +5°C° 0 mm 1 m/s 731 mmHg 71%
    05:00 +5°C° 0 mm 1 m/s 731 mmHg 71%
    06:00 +5°C° 0 mm 1 m/s 731 mmHg 71%
    07:00 +5°C° 0 mm 1 m/s 731 mmHg 71%
    08:00 +7°C° 0 mm 1 m/s 731 mmHg 65%
    09:00 +8°C° 0 mm 0 m/s 731 mmHg 58%
    10:00 +10°C° 0 mm 0 m/s 732 mmHg 51%
    11:00 +11°C° 0 mm 0 m/s 732 mmHg 48%
    12:00 +13°C° 0 mm 0 m/s 731 mmHg 44%
    13:00 +14°C° 0 mm 0 m/s 731 mmHg 41%
    14:00 +13°C° 0 mm 0 m/s 731 mmHg 43%
    15:00 +13°C° 0 mm 0 m/s 731 mmHg 45%
    16:00 +13°C° 0 mm 1 m/s 730 mmHg 46%
    17:00 +11°C° 0 mm 0 m/s 730 mmHg 51%
    18:00 +10°C° 0 mm 0 m/s 730 mmHg 57%
    19:00 +9°C° 0 mm 0 m/s 730 mmHg 62%
    20:00 +8°C° 0.1 mm 0 m/s 730 mmHg 65%
    21:00 +8°C° 0.1 mm 0 m/s 730 mmHg 68%
    22:00 +9°C° 0.1 mm 1 m/s 730 mmHg 71%
    23:00 +8°C° 0.1 mm 1 m/s 730 mmHg 72%
    Voir plus